Back to catalog

STARLINK-35133

AliveCommunicationsSSO
NORAD 65535·PAYLOAD·🇺🇸 United States

Launched Sep 6, 2025 from Cape Canaveral Space Force Station

Loading…

Next Passes (next 24 hours)

TLE

FreshSource: CelesTrak SupGP

Epoch: Sep 14, 2026, 15:13 UTC

1 65535C 25200R   26257.63451389  .00059921  00000+0  18600-2 0  2573
2 65535  97.2839 324.1548 0000774  98.6098 333.5893 15.33410697    13

Track STARLINK-35133 in real time with AllMySat

Download on the App Store